TimeEST,TemperatureF,Dew PointF,Humidity,Sea Level PressureIn,VisibilityMPH,Wind Direction,Wind SpeedMPH,Gust SpeedMPH,PrecipitationIn,Events,Conditions,WindDirDegrees,DateUTC
12:38 AM,19.9,15.1,81,30.15,1.0,North,9.2,-,0.00,Snow,Light Snow,360,2014-02-13 05:38:00
12:53 AM,19.9,15.1,81,30.17,0.8,North,8.1,-,0.00,Snow,Light Snow,360,2014-02-13 05:53:00
1:03 AM,19.9,15.1,81,30.13,1.0,North,8.1,-,0.00,Snow,Light Snow,360,2014-02-13 06:03:00
1:17 AM,19.9,15.1,81,30.12,0.8,North,10.4,-,0.00,Snow,Light Snow,360,2014-02-13 06:17:00
1:39 AM,19.9,15.1,81,30.11,0.8,North,9.2,-,0.01,Snow,Light Snow,10,2014-02-13 06:39:00
1:53 AM,19.9,15.1,81,30.13,0.8,North,8.1,-,0.01,Snow,Light Snow,360,2014-02-13 06:53:00
2:53 AM,19.9,15.1,81,30.07,0.8,North,11.5,-,0.00,,Haze,360,2014-02-13 07:53:00
3:53 AM,19.9,16.0,85,29.99,0.5,North,15.0,-,0.01,Fog-Snow,Snow,10,2014-02-13 08:53:00
4:09 AM,21.0,16.0,81,29.96,0.8,North,17.3,25.3,0.00,Snow,Light Snow,10,2014-02-13 09:09:00
4:17 AM,21.0,16.0,81,29.96,0.8,North,15.0,21.9,0.00,Snow,Light Snow,10,2014-02-13 09:17:00
4:37 AM,21.0,17.1,85,29.94,0.2,North,11.5,-,0.00,Fog-Snow,Heavy Snow,10,2014-02-13 09:37:00
4:53 AM,21.0,17.1,85,29.94,0.5,North,16.1,-,0.00,Fog-Snow,Snow,10,2014-02-13 09:53:00
5:30 AM,21.9,17.1,82,29.90,0.2,North,13.8,-,0.01,Snow,Heavy Snow,10,2014-02-13 10:30:00
5:38 AM,21.9,17.1,82,29.89,0.2,North,12.7,-,0.01,Snow,Heavy Snow,360,2014-02-13 10:38:00
5:53 AM,21.9,18.0,85,29.91,0.2,North,13.8,-,0.01,Fog-Snow,Heavy Snow,360,2014-02-13 10:53:00
6:01 AM,21.9,18.0,85,29.87,0.5,North,13.8,-,0.00,Fog-Snow,Snow,360,2014-02-13 11:01:00
6:53 AM,23.0,19.0,85,29.86,0.5,North,11.5,-,0.01,Fog-Snow,Snow,350,2014-02-13 11:53:00
7:38 AM,23.0,19.0,85,29.80,0.2,North,11.5,-,0.00,Fog-Snow,Heavy Snow,360,2014-02-13 12:38:00
7:53 AM,24.1,19.0,81,29.82,0.2,North,9.2,-,0.00,Snow,Heavy Snow,360,2014-02-13 12:53:00
8:49 AM,24.8,21.2,86,29.77,0.5,North,12.7,-,0.00,Fog-Snow,Snow,350,2014-02-13 13:49:00
8:50 AM,25.0,21.0,85,29.79,0.5,North,13.8,-,0.00,Fog-Snow,Snow,360,2014-02-13 13:50:00
9:05 AM,26.1,21.9,84,29.75,0.5,North,12.7,-,0.01,Fog-Snow,Snow,360,2014-02-13 14:05:00
9:33 AM,27.0,23.0,85,29.73,1.2,North,15.0,-,0.01,Snow,Light Snow,360,2014-02-13 14:33:00
9:53 AM,28.0,23.0,81,29.74,1.0,North,12.7,23.0,0.01,Snow,Light Snow,360,2014-02-13 14:53:00
10:53 AM,30.0,25.0,82,29.68,1.0,North,16.1,-,0.00,Snow,Light Snow,350,2014-02-13 15:53:00
11:00 AM,30.0,25.0,82,29.65,1.2,North,12.7,-,0.00,Snow,Light Snow,350,2014-02-13 16:00:00
11:35 AM,30.9,25.0,79,29.63,2.0,North,13.8,21.9,0.01,Snow,Light Snow,350,2014-02-13 16:35:00
11:53 AM,30.9,26.1,82,29.64,1.5,North,15.0,21.9,0.01,Snow,Light Snow,350,2014-02-13 16:53:00
12:01 PM,32.0,26.1,79,29.60,1.5,North,16.1,24.2,0.00,Snow,Light Snow,350,2014-02-13 17:01:00
12:46 PM,32.0,27.0,82,29.56,2.0,North,15.0,-,0.01,Snow,Light Snow,350,2014-02-13 17:46:00
12:53 PM,32.0,27.0,82,29.57,2.5,North,13.8,-,0.02,Snow,Light Snow,350,2014-02-13 17:53:00
1:02 PM,32.0,27.0,82,29.55,2.5,North,15.0,-,0.00,Snow,Light Snow,350,2014-02-13 18:02:00
1:07 PM,33.1,28.0,82,29.54,3.0,North,12.7,-,0.00,Snow,Light Snow,350,2014-02-13 18:07:00
1:14 PM,33.1,28.0,82,29.53,1.8,North,16.1,-,0.01,Snow,Light Snow,350,2014-02-13 18:14:00
1:21 PM,33.1,28.0,82,29.52,1.5,North,13.8,-,0.01,Snow,Light Snow,350,2014-02-13 18:21:00
1:53 PM,32.0,27.0,82,29.51,1.8,NNW,15.0,-,0.02,Snow,Light Snow,340,2014-02-13 18:53:00
2:40 PM,32.0,27.0,82,29.46,1.2,NNW,16.1,21.9,0.01,Snow,Light Snow,340,2014-02-13 19:40:00
2:53 PM,32.0,27.0,82,29.47,1.2,NNW,13.8,-,0.02,Snow,Light Snow,340,2014-02-13 19:53:00
3:00 PM,32.0,27.0,82,29.45,1.5,North,16.1,24.2,0.00,Snow,Light Snow,350,2014-02-13 20:00:00
3:40 PM,33.1,28.0,82,29.42,2.5,NNW,20.7,27.6,0.00,,Overcast,340,2014-02-13 20:40:00
3:53 PM,33.1,28.0,82,29.43,3.0,North,20.7,28.8,0.00,,Overcast,350,2014-02-13 20:53:00
4:53 PM,34.0,27.0,75,29.43,2.0,NNW,20.7,29.9,0.01,Snow,Light Snow,340,2014-02-13 21:53:00
5:00 PM,34.0,27.0,75,29.41,1.2,NNW,20.7,29.9,0.00,Snow,Light Snow,340,2014-02-13 22:00:00
5:51 PM,35.6,26.6,70,29.40,3.0,NNW,18.4,32.2,0.00,Snow,Light Snow,340,2014-02-13 22:51:00
5:53 PM,35.1,27.0,72,29.42,4.0,NNW,23.0,32.2,0.00,Snow,Light Snow,330,2014-02-13 22:53:00
6:05 PM,35.1,27.0,72,29.40,9.0,NNW,18.4,28.8,0.01,,Overcast,340,2014-02-13 23:05:00
6:53 PM,36.0,28.0,73,29.41,10.0,NNW,11.5,28.8,0.03,,Overcast,330,2014-02-13 23:53:00
7:53 PM,36.0,28.9,76,29.40,10.0,NW,16.1,25.3,0.03,,Overcast,310,2014-02-14 00:53:00
8:17 PM,37.0,28.9,73,29.39,10.0,NW,18.4,32.2,N/A,,Overcast,320,2014-02-14 01:17:00
8:53 PM,37.0,28.9,73,29.40,10.0,NW,13.8,23.0,N/A,,Overcast,320,2014-02-14 01:53:00
9:30 PM,37.0,27.0,67,29.39,10.0,NW,11.5,24.2,N/A,,Overcast,310,2014-02-14 02:30:00
9:53 PM,37.0,26.1,65,29.42,10.0,WNW,18.4,28.8,N/A,,Overcast,300,2014-02-14 02:53:00
10:53 PM,37.0,25.0,62,29.45,10.0,WNW,19.6,27.6,N/A,,Overcast,300,2014-02-14 03:53:00
11:53 PM,36.0,24.1,62,29.45,10.0,WNW,20.7,29.9,N/A,,Partly Cloudy,290,2014-02-14 04:53:00